Showing default

IRIDIUM 141, 43077

Orbit data source: Space-Track

IRIDIUM 141, 43077 is a payload satellite owned by Iridium (US) in LEO that was launched on Sat, 23 Dec 2017 UTC via an FALCON 9 launch vehicle from the Air Force Western Test Range (AFWTR). Payload-class satellites include a variety of spacecraft equipped with specific instruments for various scientific and technological missions. These include communications satellites like Starlink; space stations such as the ISS; scientific satellites like the Hubble; Earth observation satellites from companies like Planet Labs, Umbra, and HawkEye 360; GPS; miniature CubeSats for education and research; and military/defense satellites.

Loading next visibility...
Identifier
43077, 2017-083H
Orbit
LEO
Country
Flag of USUS
Related business
Manufacturer
OATK SSG Gilbert
Mission
Operational Commercial Communications
Bus & Motor
ELITEBUS, Unknown motor
Mass
860 kg wet, 700 kg dry
Launch date (UTC)
2017-12-23 (8 years ago)
Launch vehicle
FALCON 9
Launch site
Air Force Western Test Range (AFWTR)
Object type
Payload
Rocket body
Debris
Shape & HBR
Trap Box + 2 Pan, 4.8 m
Radar Cross Section
10.154 m², Large (>1 m²)

Expand to show TLE details & history
Last TLE update: 9 hours ago

TLE from 9 hours ago
0 IRIDIUM 141
1 43077U 17083H   25289.08225845 -.00000133  00000-0 -54540-4 0  9991
2 43077  86.3946  64.0214 0002249  95.6304 264.5148 14.34215467409189
Epoch: 2025-10-16T01:58Z
TLE epoch observation values (Epoch: 2025-10-16T01:58:27.130Z)
Latitude
-0.00003°
Longitude
9.56127°
Altitude
780.88 km
Speed
7.463 km/s
True Right ascension
04h 16m 05s
True Declination
0° 00' 00"
Sunlit
Object was in full shadow at epoch
Visualization orbit readout
Latitude
Unknown
Longitude
Unknown
Altitude
Unknown
Speed
Unknown
Apparent Right ascension
Unknown
Apparent Declination
Unknown
Sunlit
N/A
Visualization observer readout
Local Sidereal Time
05:09:16
Azimuth
Unknown
Elevation
Unknown
Doppler factor
Unknown
Orbital elements
Apogee altitude
776.248 km
Perigee altitude
773.031 km
Semi-major axis
7,152.776 km
Eccentricity
0.00022
Inclination
86.3946°
RAAN
64.0214°
Arg. of periapsis
95.6304°
True anomaly
264.48915°
Mean anomaly
264.5148°
Eccentric anomaly
264.50197°
Mean motion
3.58782 °/min
Orbital period
100.34 mins
BSTAR
-0.00005454
Loading maneuver chart data...
Computing Atmospheric mass density...
Loading historical data...
Loading historical data...
Loading historical data...
Loading historical data...
Loading historical data...
Loading historical data...
Loading historical data...

Documentation

Showing up to 5 results
|